Flag for Switzerland Weather past 2 weeks in Cham, Zug, Switzerland

Now
34 °F

Chilly.


Feels Like: 28 °F
Forecast: 25 / 38 °F
Wind: 7 mph from West

Location: Zurich Town / Ville.

Current Time: Jan 27, 2015 at 6:13:29 PM

Latest Report: Jan 27, 2015 at 5:00 PM


Visibility: N/A

Pressure: 30.27 "Hg

Humidity: 80%

Dew point: 28 °F

Location of ChamLocation

Historic Weather in Cham — Graph

°F

Cham temperature yesterday

Maximum temperature yesterday: 31 °F (at 11:00 PM)
Minimum temperature yesterday: 26 °F (at 7:00 AM)
Average temperature yesterday: 29 °F

Past Weeks' High & Low Weather Summary

 TemperatureHumidityPressure
High54 °F (Jan 13, 1:00 PM)100% (Jan 17, 8:00 AM)30.47 "Hg (Jan 17, 8:00 AM)
Low26 °F (Jan 26, 7:00 AM)23% (Jan 13, 1:00 PM)29.70 "Hg (Jan 16, 4:00 PM)
Average34 °F84%30.07 "Hg
* Reported Jan 12 4:00 PM — Jan 27 4:00 PM, Cham, Weather by CustomWeather, © 2014

Note: Actual official high and low records may vary slightly from our data, if they occured in-between our weather recording intervals... More about our weather records

Advertising

Cham weather history for previous 24 hours

 ConditionsComfort  
Time TempWeatherWind HumidityBarometerVisibility
4:00 PM
Jan 27
34 °FChilly.7 mph80%30.27 "HgN/A
3:00 PM35 °FChilly.7 mph78%30.27 "HgN/A
2:00 PM36 °FChilly.7 mph79%30.27 "HgN/A
1:00 PM35 °FOvercast.5 mph84%30.28 "HgN/A
12:00 PM34 °FChilly.3 mph88%30.29 "HgN/A
11:00 AM34 °FChilly.2 mph91%30.30 "HgN/A
10:00 AM33 °FChilly.3 mph92%30.29 "HgN/A
9:00 AM33 °FChilly.5 mph93%30.28 "HgN/A
8:00 AM33 °FChilly.2 mph97%30.28 "HgN/A
7:00 AM33 °FChilly.5 mph96%30.25 "HgN/A
6:00 AM32 °FChilly.2 mph100%30.25 "HgN/A
5:00 AM32 °FChilly.3 mph98%30.24 "HgN/A
4:00 AM32 °FChilly.5 mph98%30.23 "HgN/A
3:00 AM33 °FChilly.8 mph96%30.23 "HgN/A
2:00 AM32 °FChilly.7 mph98%30.23 "HgN/A
1:00 AM32 °FChilly.6 mph98%30.23 "HgN/A
12:00 AM31 °FChilly.6 mph98%30.24 "HgN/A
11:00 PM
Jan 26
31 °FChilly.8 mph97%30.24 "HgN/A
9:00 PM30 °FChilly.7 mph99%30.26 "HgN/A
8:00 PM30 °FChilly.8 mph99%30.27 "HgN/A
7:00 PM29 °FChilly.7 mph98%30.28 "HgN/A
6:00 PM29 °FChilly.7 mph97%30.29 "HgN/A
Weather by CustomWeather, © 2014

See weather overviewHow to use our weather pages